sat.trackr.live / text

‹ back to catalog

STARLINK-3533

NORAD 51715 · 2022-016B

PAYLOAD ACTIVE UNKNOWN

§ Identity

Operator
Country
US
Launch date
2022-02-21
Launch site
AFETR
Launch vehicle
Mass (kg)
RCS (m²)

Purposes: comms

External: N2YO · Heavens-Above · Gunter

§ Orbital elements

Epoch: 2026-05-24T23:29:56.927904Z

Period
95.44 min
Inclination
53.2112°
Eccentricity
0.0001967
Mean motion
15.08824986 rev/d
Perigee alt
538.4 km
Apogee alt
541.2 km
Semi-major
6,917.9 km
B*
1.9320e-4
RAAN
346.6544°
Arg perigee
89.4589°
Mean anomaly
270.6628°
Rev number
23,607

§ Raw data

STARLINK-35331 51715U 22016B   26144.97913111  .00002787  00000+0  19320-3 0  99902 51715  53.2112 346.6544 0001967  89.4589 270.6628 15.08824986236073

JSON: /api/v1/satellites/51715 · /tle

For live sub-satellite position, see the globe view (requires WebGL).

§ Visibility from observer

Set your observer location to see the next 7 days of passes ≥ 10°. The values pass through the URL so the page stays shareable.

No JS? Fill the form by hand. The geolocation button needs JavaScript.